{"data":{"norad_id":59810,"intl_designator":"2024-095A","name":"2024-095A","alt_names":[],"object_type":"PAYLOAD","status":"ACTIVE","operator":null,"country":"PRC","launch_date":"2024-05-21","launch_site_code":"JSC","launch_vehicle":null,"mission":null,"orbit_class":"UNKNOWN","rcs_meters":null,"size_class":null,"mass_kg":null,"dimensions":null,"purposes":[],"wikipedia_slug":null,"has_3d_model":false,"image_url":null,"decayed_at":null,"tle_current":{"epoch":"2026-05-25T05:35:56.892768Z","epoch_age_seconds":58054,"freshness":"FRESH","line1":"1 59810U 24095A   26145.23329737  .00004692  00000+0  28385-3 0  9996","line2":"2 59810  97.5342 224.4768 0003158  41.8806 318.2665 15.11113386110678","mean_motion":15.11113386,"eccentricity":0.0003158,"inclination_deg":97.5342,"raan_deg":224.4768,"arg_perigee_deg":41.8806,"mean_anomaly_deg":318.2665,"bstar":0.00028385,"rev_number":11067,"period_min":95.293974187586,"perigee_km":530.62079573891,"apogee_km":534.98574561387,"semimajor_km":6910.9402706764,"source":"CELESTRAK","updated_at":"2026-05-25T13:38:01.685432Z"}}}